Tracking 18793 objects as of 25-September-2017
HD Live streaming from Space Station
objects crossing your sky now

SSU 3

Track SSU 3 now!
10-day predictions
SSU 3 is classified as:


NORAD ID: 8884
Int'l Code: 1976-038J
Perigee: 450.7 km
Apogee: 1,489.3 km
Inclination: 63.3 °
Period: 104.3 minutes
Semi major axis: 7341 km
RCS: Unknown
Launch date: April 30, 1976
Source: United States (US)
Launch site: AIR FORCE WESTERN TEST RANGE (AFWTR)
aabbcc
Your satellite tracking list
Your tracking list is empty





NASA's NSSDC Master Catalog

Two Line Element Set (TLE):
1 08884U 76038J   17232.85507560 0.00000220  00000-0  28321-4 0    00
2 08884  63.3232 140.1539 0707400 136.9766 223.0234 13.80288670    07
Source of the keplerian elements: McCants